sat.trackr.live / text

‹ back to catalog

STARLINK-35533

NORAD 66429 · 2025-259H

PAYLOAD ACTIVE UNKNOWN

§ Identity

Operator
Country
US
Launch date
2025-11-11
Launch site
AFETR
Launch vehicle
Mass (kg)
RCS (m²)

Purposes: comms

External: N2YO · Heavens-Above · Gunter

§ Orbital elements

Epoch: 2026-09-20T00:33:16.699680Z

Period
94.27 min
Inclination
42.9969°
Eccentricity
0.0000407
Mean motion
15.27588455 rev/d
Perigee alt
482.7 km
Apogee alt
483.3 km
Semi-major
6,861.2 km
B*
5.8305e-4
RAAN
256.7207°
Arg perigee
296.9149°
Mean anomaly
63.1661°
Rev number
4,921

§ Raw data

STARLINK-355331 66429U 25259H   26263.02310995  .00015821  00000+0  58305-3 0  99982 66429  42.9969 256.7207 0000407 296.9149  63.1661 15.27588455 49217

JSON: /api/v1/satellites/66429 · /tle

For live sub-satellite position, see the globe view (requires WebGL).

§ Visibility from observer

Set your observer location to see the next 7 days of passes ≥ 10°. The values pass through the URL so the page stays shareable.

No JS? Fill the form by hand. The geolocation button needs JavaScript.